Time,TemperatureF,DewpointF,PressureIn,WindDirection,WindDirectionDegrees,WindSpeedMPH,WindSpeedGustMPH,Humidity,HourlyPrecipIn,Conditions,Clouds,dailyrainin,SoftwareType,DateUTC
2013-05-04 00:01:00,70.0,25.0,29.86,WNW,288,16.0,25.0,18,0.00,,,0.00,,2013-05-04 07:01:00,
2013-05-04 00:11:00,70.0,25.0,29.86,WNW,288,16.0,25.0,18,0.00,,,0.00,,2013-05-04 07:11:00,
2013-05-04 00:21:00,70.0,26.0,29.85,WNW,288,20.0,30.0,19,0.00,,,0.00,,2013-05-04 07:21:00,
2013-05-04 00:31:00,70.0,26.0,29.85,WNW,291,15.0,25.0,19,0.00,,,0.00,,2013-05-04 07:31:00,
2013-05-04 00:41:00,70.0,26.0,29.85,WNW,291,15.0,25.0,19,0.00,,,0.00,,2013-05-04 07:41:00,
2013-05-04 00:52:00,69.0,26.0,29.85,WNW,293,17.0,25.0,20,0.00,,,0.00,,2013-05-04 07:52:00,
2013-05-04 01:01:00,69.0,25.0,29.85,WNW,297,15.0,27.0,19,0.00,,,0.00,,2013-05-04 08:01:00,
2013-05-04 01:11:00,69.0,25.0,29.85,WNW,297,15.0,27.0,19,0.00,,,0.00,,2013-05-04 08:11:00,
2013-05-04 01:21:00,69.0,26.0,29.85,WNW,292,13.0,26.0,20,0.00,,,0.00,,2013-05-04 08:21:00,
2013-05-04 01:31:00,69.0,26.0,29.83,WNW,289,21.0,29.0,20,0.00,,,0.00,,2013-05-04 08:31:00,
2013-05-04 01:41:00,69.0,26.0,29.83,WNW,289,21.0,29.0,20,0.00,,,0.00,,2013-05-04 08:41:00,
2013-05-04 01:52:00,69.0,27.0,29.83,WNW,291,17.0,22.0,21,0.00,,,0.00,,2013-05-04 08:52:00,
2013-05-04 02:02:00,69.0,27.0,29.82,WNW,291,20.0,28.0,21,0.00,,,0.00,,2013-05-04 09:02:00,
2013-05-04 02:11:00,69.0,27.0,29.82,WNW,291,20.0,28.0,21,0.00,,,0.00,,2013-05-04 09:11:00,
2013-05-04 02:21:00,69.0,27.0,29.84,WNW,290,16.0,27.0,21,0.00,,,0.00,,2013-05-04 09:21:00,
2013-05-04 02:32:00,69.0,27.0,29.83,WNW,294,21.0,29.0,21,0.00,,,0.00,,2013-05-04 09:32:00,
2013-05-04 02:42:00,69.0,27.0,29.83,WNW,294,21.0,29.0,21,0.00,,,0.00,,2013-05-04 09:42:00,
2013-05-04 02:53:00,68.0,28.0,29.83,WNW,293,20.0,29.0,22,0.00,,,0.00,,2013-05-04 09:53:00,
2013-05-04 03:02:00,68.0,29.0,29.82,WNW,290,23.0,31.0,23,0.00,,,0.00,,2013-05-04 10:02:00,
2013-05-04 03:12:00,68.0,29.0,29.82,WNW,290,23.0,31.0,23,0.00,,,0.00,,2013-05-04 10:12:00,
2013-05-04 03:22:00,68.0,29.0,29.82,WNW,288,22.0,31.0,23,0.00,,,0.00,,2013-05-04 10:22:00,
2013-05-04 03:32:00,67.0,30.0,29.80,WNW,290,21.0,28.0,25,0.00,,,0.00,,2013-05-04 10:32:00,
2013-05-04 03:42:00,67.0,30.0,29.80,WNW,290,21.0,28.0,25,0.00,,,0.00,,2013-05-04 10:42:00,
2013-05-04 03:52:00,67.0,30.0,29.80,WNW,290,21.0,31.0,25,0.00,,,0.00,,2013-05-04 10:52:00,
2013-05-04 04:02:00,68.0,32.0,29.79,WNW,287,22.0,31.0,26,0.00,,,0.00,,2013-05-04 11:02:00,
2013-05-04 04:11:00,68.0,32.0,29.79,WNW,287,22.0,31.0,26,0.00,,,0.00,,2013-05-04 11:11:00,
2013-05-04 04:31:00,68.0,31.0,29.79,WNW,290,21.0,31.0,25,0.00,,,0.00,,2013-05-04 11:31:00,
2013-05-04 04:58:00,67.0,31.0,29.78,WNW,288,17.0,23.0,26,0.00,,,0.00,,2013-05-04 11:58:00,
2013-05-04 05:22:00,67.0,31.0,29.78,WNW,293,15.0,20.0,26,0.00,,,0.00,,2013-05-04 12:22:00,
2013-05-04 05:52:00,68.0,30.0,29.78,WNW,286,19.0,28.0,24,0.00,,,0.00,,2013-05-04 12:52:00,
2013-05-04 06:01:00,67.0,30.0,29.78,WNW,292,17.0,25.0,25,0.00,,,0.00,,2013-05-04 13:01:00,
2013-05-04 06:11:00,67.0,30.0,29.78,WNW,292,17.0,25.0,25,0.00,,,0.00,,2013-05-04 13:11:00,
2013-05-04 06:21:00,67.0,30.0,29.78,WNW,290,17.0,25.0,25,0.00,,,0.00,,2013-05-04 13:21:00,
2013-05-04 06:32:00,67.0,29.0,29.78,WNW,293,18.0,24.0,24,0.00,,,0.00,,2013-05-04 13:32:00,
2013-05-04 06:52:00,68.0,29.0,29.80,WNW,291,16.0,24.0,23,0.00,,,0.00,,2013-05-04 13:52:00,
2013-05-04 07:01:00,68.0,28.0,29.80,WNW,290,17.0,22.0,22,0.00,,,0.00,,2013-05-04 14:01:00,
2013-05-04 07:21:00,69.0,27.0,29.80,WNW,289,15.0,21.0,21,0.00,,,0.00,,2013-05-04 14:21:00,
2013-05-04 07:32:00,70.0,27.0,29.80,WNW,289,16.0,23.0,20,0.00,,,0.00,,2013-05-04 14:32:00,
2013-05-04 07:52:00,71.0,28.0,29.79,WNW,293,16.0,23.0,20,0.00,,,0.00,,2013-05-04 14:52:00,
2013-05-04 08:01:00,71.0,28.0,29.79,WNW,295,16.0,23.0,20,0.00,,,0.00,,2013-05-04 15:01:00,
2013-05-04 08:21:00,72.0,27.0,29.78,NW,304,10.0,20.0,19,0.00,,,0.00,,2013-05-04 15:21:00,
2013-05-04 08:33:00,73.0,27.0,29.78,NW,309,5.0,23.0,18,0.00,,,0.00,,2013-05-04 15:33:00,
2013-05-04 09:03:00,74.0,28.0,29.78,NW,306,12.0,21.0,18,0.00,,,0.00,,2013-05-04 16:03:00,
2013-05-04 09:12:00,74.0,28.0,29.78,NW,306,12.0,21.0,18,0.00,,,0.00,,2013-05-04 16:12:00,
2013-05-04 09:22:00,74.0,26.0,29.78,NW,304,12.0,20.0,17,0.00,,,0.00,,2013-05-04 16:22:00,
2013-05-04 09:32:00,75.0,27.0,29.78,WNW,282,8.0,17.0,17,0.00,,,0.00,,2013-05-04 16:32:00,
2013-05-04 09:42:00,75.0,27.0,29.78,WNW,282,8.0,17.0,17,0.00,,,0.00,,2013-05-04 16:42:00,
2013-05-04 09:52:00,76.0,27.0,29.77,WNW,291,11.0,17.0,16,0.00,,,0.00,,2013-05-04 16:52:00,
2013-05-04 10:01:00,75.0,26.0,29.77,West,274,12.0,18.0,16,0.00,,,0.00,,2013-05-04 17:01:00,
2013-05-04 10:12:00,75.0,26.0,29.77,West,274,12.0,18.0,16,0.00,,,0.00,,2013-05-04 17:12:00,
2013-05-04 10:22:00,76.0,25.0,29.77,West,272,10.0,16.0,15,0.00,,,0.00,,2013-05-04 17:22:00,
2013-05-04 10:32:00,77.0,26.0,29.77,West,278,8.0,15.0,15,0.00,,,0.00,,2013-05-04 17:32:00,
2013-05-04 10:42:00,77.0,26.0,29.77,West,278,8.0,15.0,15,0.00,,,0.00,,2013-05-04 17:42:00,
2013-05-04 10:52:00,77.0,24.0,29.76,West,274,8.0,16.0,14,0.00,,,0.00,,2013-05-04 17:52:00,
2013-05-04 11:01:00,77.0,22.0,29.76,WSW,243,10.0,22.0,13,0.00,,,0.00,,2013-05-04 18:01:00,
2013-05-04 11:12:00,77.0,22.0,29.76,WSW,243,10.0,22.0,13,0.00,,,0.00,,2013-05-04 18:12:00,
2013-05-04 11:21:00,77.0,22.0,29.76,SW,234,10.0,18.0,13,0.00,,,0.00,,2013-05-04 18:21:00,
2013-05-04 11:32:00,78.0,21.0,29.76,SW,228,9.0,19.0,12,0.00,,,0.00,,2013-05-04 18:32:00,
2013-05-04 11:42:00,78.0,21.0,29.76,SW,228,9.0,19.0,12,0.00,,,0.00,,2013-05-04 18:42:00,
2013-05-04 11:52:00,78.0,21.0,29.75,SW,221,8.0,18.0,12,0.00,,,0.00,,2013-05-04 18:52:00,
2013-05-04 12:01:00,78.0,21.0,29.74,SW,218,8.0,16.0,12,0.00,,,0.00,,2013-05-04 19:01:00,
2013-05-04 12:11:00,78.0,21.0,29.74,SW,218,8.0,16.0,12,0.00,,,0.00,,2013-05-04 19:11:00,
2013-05-04 12:21:00,79.0,24.0,29.73,SW,223,7.0,15.0,13,0.00,,,0.00,,2013-05-04 19:21:00,
2013-05-04 12:31:00,78.0,21.0,29.72,SSW,207,7.0,17.0,12,0.00,,,0.00,,2013-05-04 19:31:00,
2013-05-04 12:41:00,78.0,21.0,29.72,SSW,207,7.0,17.0,12,0.00,,,0.00,,2013-05-04 19:41:00,
2013-05-04 12:52:00,78.0,23.0,29.72,SSW,212,7.0,18.0,13,0.00,,,0.00,,2013-05-04 19:52:00,
2013-05-04 13:01:00,80.0,21.0,29.70,WNW,302,10.0,19.0,11,0.00,,,0.00,,2013-05-04 20:01:00,
2013-05-04 13:11:00,80.0,21.0,29.70,WNW,302,10.0,19.0,11,0.00,,,0.00,,2013-05-04 20:11:00,
2013-05-04 13:21:00,80.0,23.0,29.71,SW,236,8.0,22.0,12,0.00,,,0.00,,2013-05-04 20:21:00,
2013-05-04 13:31:00,80.0,21.0,29.70,WSW,245,10.0,21.0,11,0.00,,,0.00,,2013-05-04 20:31:00,
2013-05-04 13:41:00,80.0,21.0,29.70,WSW,245,10.0,21.0,11,0.00,,,0.00,,2013-05-04 20:41:00,
2013-05-04 13:52:00,80.0,21.0,29.70,WSW,252,18.0,23.0,11,0.00,,,0.00,,2013-05-04 20:52:00,
2013-05-04 14:01:00,81.0,22.0,29.70,West,273,12.0,21.0,11,0.00,,,0.00,,2013-05-04 21:01:00,
2013-05-04 14:11:00,81.0,22.0,29.70,West,273,12.0,21.0,11,0.00,,,0.00,,2013-05-04 21:11:00,
2013-05-04 14:21:00,80.0,23.0,29.69,WSW,243,14.0,22.0,12,0.00,,,0.00,,2013-05-04 21:21:00,
2013-05-04 14:32:00,81.0,24.0,29.69,WNW,282,11.0,21.0,12,0.00,,,0.00,,2013-05-04 21:32:00,
2013-05-04 14:43:00,81.0,24.0,29.69,WNW,282,11.0,21.0,12,0.00,,,0.00,,2013-05-04 21:43:00,
2013-05-04 14:53:00,81.0,22.0,29.68,West,274,10.0,22.0,11,0.00,,,0.00,,2013-05-04 21:53:00,
2013-05-04 15:02:00,80.0,23.0,29.68,West,277,8.0,21.0,12,0.00,,,0.00,,2013-05-04 22:02:00,
2013-05-04 15:12:00,80.0,23.0,29.68,West,277,8.0,21.0,12,0.00,,,0.00,,2013-05-04 22:12:00,
2013-05-04 15:22:00,81.0,22.0,29.67,SW,227,11.0,22.0,11,0.00,,,0.00,,2013-05-04 22:22:00,
2013-05-04 15:32:00,80.0,21.0,29.67,SW,225,6.0,18.0,11,0.00,,,0.00,,2013-05-04 22:32:00,
2013-05-04 15:42:00,80.0,21.0,29.67,SW,225,6.0,18.0,11,0.00,,,0.00,,2013-05-04 22:42:00,
2013-05-04 15:52:00,80.0,21.0,29.67,WSW,243,10.0,24.0,11,0.00,,,0.00,,2013-05-04 22:52:00,
2013-05-04 16:02:00,80.0,23.0,29.67,WSW,248,16.0,23.0,12,0.00,,,0.00,,2013-05-04 23:02:00,
2013-05-04 16:11:00,80.0,23.0,29.67,WSW,248,16.0,23.0,12,0.00,,,0.00,,2013-05-04 23:11:00,
2013-05-04 16:21:00,80.0,23.0,29.67,WSW,250,14.0,26.0,12,0.00,,,0.00,,2013-05-04 23:21:00,
2013-05-04 16:32:00,80.0,25.0,29.66,WSW,239,15.0,24.0,13,0.00,,,0.00,,2013-05-04 23:32:00,
2013-05-04 16:42:00,80.0,25.0,29.66,WSW,239,15.0,24.0,13,0.00,,,0.00,,2013-05-04 23:42:00,
2013-05-04 16:52:00,79.0,22.0,29.66,SW,230,15.0,26.0,12,0.00,,,0.00,,2013-05-04 23:52:00,
2013-05-04 17:01:00,79.0,24.0,29.66,WSW,251,6.0,15.0,13,0.00,,,0.00,,2013-05-05 00:01:00,
2013-05-04 17:11:00,79.0,24.0,29.66,WSW,251,6.0,15.0,13,0.00,,,0.00,,2013-05-05 00:11:00,
2013-05-04 17:21:00,79.0,26.0,29.67,WSW,250,9.0,24.0,14,0.00,,,0.00,,2013-05-05 00:21:00,
2013-05-04 17:31:00,78.0,30.0,29.67,SW,228,15.0,24.0,17,0.00,,,0.00,,2013-05-05 00:31:00,
2013-05-04 17:42:00,78.0,30.0,29.67,SW,228,15.0,24.0,17,0.00,,,0.00,,2013-05-05 00:42:00,
2013-05-04 17:52:00,75.0,32.0,29.66,SSW,212,21.0,31.0,21,0.00,,,0.00,,2013-05-05 00:52:00,
2013-05-04 18:01:00,74.0,33.0,29.66,SSW,211,21.0,31.0,22,0.00,,,0.00,,2013-05-05 01:01:00,
2013-05-04 18:11:00,73.0,33.0,29.66,SW,218,16.0,25.0,23,0.00,,,0.00,,2013-05-05 01:11:00,
2013-05-04 18:21:00,73.0,33.0,29.66,SW,218,16.0,25.0,23,0.00,,,0.00,,2013-05-05 01:21:00,
2013-05-04 18:32:00,73.0,34.0,29.66,SW,219,17.0,24.0,24,0.00,,,0.00,,2013-05-05 01:32:00,
2013-05-04 18:41:00,73.0,34.0,29.66,SW,219,17.0,24.0,24,0.00,,,0.00,,2013-05-05 01:41:00,
2013-05-04 18:52:00,72.0,34.0,29.66,SW,219,17.0,25.0,25,0.00,,,0.00,,2013-05-05 01:52:00,
2013-05-04 19:02:00,71.0,34.0,29.66,SW,214,16.0,23.0,26,0.00,,,0.00,,2013-05-05 02:02:00,
2013-05-04 19:11:00,71.0,34.0,29.66,SW,214,16.0,23.0,26,0.00,,,0.00,,2013-05-05 02:11:00,
2013-05-04 19:21:00,71.0,35.0,29.67,SW,214,15.0,22.0,27,0.00,,,0.00,,2013-05-05 02:21:00,
2013-05-04 19:31:00,70.0,34.0,29.67,SW,215,13.0,19.0,27,0.00,,,0.00,,2013-05-05 02:31:00,
2013-05-04 19:42:00,70.0,34.0,29.67,SW,215,13.0,19.0,27,0.00,,,0.00,,2013-05-05 02:42:00,
2013-05-04 19:51:00,69.0,35.0,29.68,WSW,257,10.0,13.0,28,0.00,,,0.00,,2013-05-05 02:51:00,
2013-05-04 20:01:00,68.0,35.0,29.69,West,263,10.0,15.0,30,0.00,,,0.00,,2013-05-05 03:01:00,
2013-05-04 20:11:00,68.0,35.0,29.69,West,263,10.0,15.0,30,0.00,,,0.00,,2013-05-05 03:11:00,
2013-05-04 20:21:00,67.0,35.0,29.69,SW,234,6.0,13.0,30,0.00,,,0.00,,2013-05-05 03:21:00,
2013-05-04 20:32:00,66.0,34.0,29.70,SW,219,5.0,8.0,31,0.00,,,0.00,,2013-05-05 03:32:00,
2013-05-04 20:42:00,66.0,34.0,29.70,SW,219,5.0,8.0,31,0.00,,,0.00,,2013-05-05 03:42:00,
2013-05-04 20:52:00,66.0,34.0,29.70,WSW,251,6.0,10.0,30,0.00,,,0.00,,2013-05-05 03:52:00,
2013-05-04 21:02:00,66.0,32.0,29.71,WSW,244,8.0,13.0,28,0.00,,,0.00,,2013-05-05 04:02:00,
2013-05-04 21:12:00,66.0,32.0,29.71,WSW,244,8.0,13.0,28,0.00,,,0.00,,2013-05-05 04:12:00,
2013-05-04 21:22:00,65.0,32.0,29.72,WSW,246,8.0,10.0,29,0.00,,,0.00,,2013-05-05 04:22:00,
2013-05-04 21:32:00,65.0,33.0,29.72,WSW,237,7.0,11.0,30,0.00,,,0.00,,2013-05-05 04:32:00,
2013-05-04 21:43:00,65.0,33.0,29.72,WSW,237,7.0,11.0,30,0.00,,,0.00,,2013-05-05 04:43:00,
2013-05-04 21:52:00,64.0,32.0,29.72,WSW,247,7.0,11.0,30,0.00,,,0.00,,2013-05-05 04:52:00,
2013-05-04 22:02:00,64.0,33.0,29.73,WSW,244,8.0,12.0,31,0.00,,,0.00,,2013-05-05 05:02:00,
2013-05-04 22:12:00,64.0,33.0,29.73,WSW,244,8.0,12.0,31,0.00,,,0.00,,2013-05-05 05:12:00,
2013-05-04 22:21:00,64.0,33.0,29.73,WSW,245,8.0,13.0,31,0.00,,,0.00,,2013-05-05 05:21:00,
2013-05-04 22:31:00,65.0,33.0,29.74,WSW,250,9.0,13.0,30,0.00,,,0.00,,2013-05-05 05:31:00,
2013-05-04 22:42:00,65.0,33.0,29.74,WSW,250,9.0,13.0,30,0.00,,,0.00,,2013-05-05 05:42:00,
2013-05-04 22:52:00,64.0,33.0,29.74,SW,235,8.0,11.0,31,0.00,,,0.00,,2013-05-05 05:52:00,
2013-05-04 23:01:00,63.0,33.0,29.74,SW,230,10.0,12.0,32,0.00,,,0.00,,2013-05-05 06:01:00,
2013-05-04 23:11:00,63.0,33.0,29.74,SW,230,10.0,12.0,32,0.00,,,0.00,,2013-05-05 06:11:00,
2013-05-04 23:21:00,63.0,33.0,29.74,WSW,249,10.0,13.0,33,0.00,,,0.00,,2013-05-05 06:21:00,
2013-05-04 23:31:00,63.0,32.0,29.73,SW,223,10.0,15.0,31,0.00,,,0.00,,2013-05-05 06:31:00,
2013-05-04 23:42:00,63.0,32.0,29.73,SW,223,10.0,15.0,31,0.00,,,0.00,,2013-05-05 06:42:00,
2013-05-04 23:51:00,63.0,32.0,29.73,SW,220,10.0,12.0,31,0.00,,,0.00,,2013-05-05 06:51:00,